User: anonymous   Login
Location: Springville
(37.3745°N, 89.2676°W)
Time: 12:10:22
(UTC+00:00)
Language:

Cosmos 1400 Rocket - Orbit

View from above orbital plane
View from above orbital plane
View from above satellite
View from above satellite

Ground track
Ground track

The orbit data is extracted from the following two-line orbital elements,

1 13403U 82079B   21022.94692856  .00000072  00000-0  32188-5 0  9999
2 13403  81.1669 201.3927 0031544 258.4311 101.3371 15.07298031 94677
Epoch (UTC): 22 January 2021 22:43:34
Eccentricity: 0.0031544
inclination: 81.1669°
perigee height: 522 km
apogee height: 566 km
right ascension of ascending node: 201.3927°
argument of perigee: 258.4311°
revolutions per day: 15.07298031
mean anomaly at epoch: 101.3371°
orbit number at epoch: 9467

The dashed part of the orbit path shows where the satellite is in the earth's shadow,  

DLR